Palestine, IL

6:08 AM CDT on August 28, 2016 (GMT -0500)
Robinson Municipal

Weather History for KRSV - February, 2013

Change the Weather History Date:

Wednesday, February 27, 2013

  Actual Average (KLWV) Record (KLWV)
Temperature  
Mean Temperature 36 °F 39 °F  
Max Temperature 39 °F 48 °F 67 °F (2011)
Min Temperature 34 °F 30 °F 6 °F (1993)
Degree Days  
Heating Degree Days 28 26  
Month to date heating degree days 800  
Since 1 July heating degree days 3651  
Cooling Degree Days 0 0  
Month to date cooling degree days 0  
Year to date cooling degree days 0  
Moisture  
Dew Point 33 °F    
Average Humidity 88    
Maximum Humidity 95    
Minimum Humidity 80    
Precipitation  
Precipitation 0.00 in 0.06 in 1.35 in (1977)
Month to date precipitation 1.95  
Year to date precipitation 4.33  
Sea Level Pressure  
Sea Level Pressure 29.72 in    
Wind  
Wind Speed 16 mph (SW)    
Max Wind Speed 22 mph    
Max Gust Speed 29 mph    
Visibility 8 miles    
Events Snow    
T = Trace of Precipitation, MM = Missing Value Source: NWS Daily Summary

Daily Weather History Graph

Daily Weather History Graph

Search for Another Location

Airport or City:

Trip Planner

Search our weather history database for the weather conditions in past years. The results will help you decide how hot, cold, wet, or windy it might be!

Date:

Astronomy

Feb. 27, 2013 Rise Set
Actual Time 6:25 AM CST 5:41 PM CST
Civil Twilight 5:58 AM CST 6:08 PM CST
Nautical Twilight 5:27 AM CST 6:39 PM CST
Astronomical Twilight 4:56 AM CST 7:10 PM CST
Moon 8:00 PM CST (2/27) 7:02 AM CST (2/27)
Length of Visible Light 12h 09m
Length of Day
11h 15m
Waning Gibbous, 96% of the Moon is Illuminated
Feb 27
Waning Gibbous
Mar 4
Last Quarter
Mar 11
New
Mar 19
First Quarter
Mar 27
Full

Hourly Weather History & Observations

Time (CST) Temp. Windchill Dew Point Humidity Pressure Visibility Wind Dir Wind Speed Gust Speed Precip Events Conditions
12:15 AM 39.6 °F 30.6 °F 37.6 °F 93% 29.58 in 7.0 mi SW 17.3 mph 23.0 mph N/A   Overcast
12:35 AM 39.0 °F 29.9 °F 36.7 °F 91% 29.59 in 10.0 mi SW 17.3 mph - N/A   Overcast
12:55 AM 38.5 °F 29.6 °F 36.5 °F 93% 29.60 in 10.0 mi WSW 16.1 mph 20.7 mph N/A   Overcast
1:15 AM 37.8 °F 28.0 °F 35.6 °F 92% 29.61 in 10.0 mi SW 18.4 mph 25.3 mph N/A   Overcast
1:35 AM 37.6 °F 27.4 °F 35.1 °F 91% 29.62 in 10.0 mi SW 19.6 mph 26.5 mph N/A   Overcast
1:55 AM 37.4 °F 26.6 °F 34.9 °F 91% 29.63 in 10.0 mi SW 21.9 mph 28.8 mph N/A   Overcast
2:15 AM 37.2 °F 27.9 °F 34.7 °F 91% 29.63 in 10.0 mi WSW 16.1 mph 24.2 mph N/A   Overcast
2:55 AM 36.9 °F 28.2 °F 35.1 °F 93% 29.63 in 7.0 mi SW 13.8 mph - N/A   Overcast
3:15 AM 36.9 °F 28.7 °F 34.7 °F 92% 29.63 in 10.0 mi SW 12.7 mph 20.7 mph N/A   Overcast
3:35 AM 36.9 °F 27.8 °F 34.2 °F 90% 29.63 in 10.0 mi WSW 15.0 mph 23.0 mph N/A   Overcast
3:55 AM 36.7 °F 28.9 °F 34.3 °F 91% 29.64 in 10.0 mi SW 11.5 mph - N/A   Overcast
4:15 AM 36.7 °F 26.9 °F 34.2 °F 91% 29.65 in 10.0 mi SW 17.3 mph 21.9 mph N/A   Overcast
4:35 AM 36.7 °F 26.3 °F 34.0 °F 90% 29.66 in 10.0 mi SW 19.6 mph - N/A   Overcast
5:15 AM 36.5 °F 27.4 °F 33.8 °F 90% 29.67 in 10.0 mi SW 15.0 mph 21.9 mph N/A   Overcast
5:35 AM 36.5 °F 27.0 °F 33.3 °F 88% 29.67 in 10.0 mi SW 16.1 mph 21.9 mph N/A   Overcast
5:55 AM 36.1 °F 26.5 °F 32.9 °F 88% 29.67 in 10.0 mi SW 16.1 mph 21.9 mph N/A   Overcast
6:15 AM 36.0 °F 26.0 °F 32.4 °F 87% 29.68 in 10.0 mi SW 17.3 mph 23.0 mph N/A   Overcast
6:35 AM 35.2 °F 26.6 °F 32.7 °F 91% 29.68 in 1.2 mi SW 12.7 mph - N/A Snow Light Snow
6:55 AM 34.3 °F 24.6 °F 33.1 °F 95% 29.69 in 0.8 mi SW 15.0 mph 20.7 mph N/A Snow Light Snow
7:15 AM 34.7 °F 26.4 °F 33.3 °F 94% 29.70 in 1.5 mi SW 11.5 mph - N/A Snow Light Snow
7:35 AM 34.7 °F 25.1 °F 33.1 °F 94% 29.71 in 2.5 mi SW 15.0 mph 20.7 mph N/A Snow Light Snow
7:55 AM 34.7 °F 24.3 °F 32.9 °F 93% 29.71 in 2.0 mi SW 17.3 mph 20.7 mph N/A Snow Light Snow
8:15 AM 34.7 °F 25.5 °F 33.3 °F 94% 29.71 in 1.5 mi SW 13.8 mph - N/A Snow Light Snow
8:35 AM 35.1 °F 24.8 °F 33.3 °F 93% 29.71 in 5.0 mi SW 17.3 mph - N/A Snow Light Snow
8:55 AM 35.6 °F 25.9 °F 33.4 °F 92% 29.71 in 7.0 mi SW 16.1 mph - N/A   Overcast
9:15 AM 36.0 °F 26.3 °F 33.1 °F 89% 29.72 in 10.0 mi SW 16.1 mph 20.7 mph N/A   Overcast
9:35 AM 36.0 °F 25.6 °F 32.5 °F 87% 29.72 in 10.0 mi SW 18.4 mph 25.3 mph N/A   Overcast
9:55 AM 36.5 °F 27.4 °F 32.4 °F 85% 29.72 in 10.0 mi SW 15.0 mph 21.9 mph N/A   Overcast
10:15 AM 36.5 °F 27.4 °F 32.7 °F 86% 29.72 in 7.0 mi SW 15.0 mph 21.9 mph N/A Snow Light Snow
10:55 AM 37.4 °F 27.2 °F 32.9 °F 84% 29.72 in 10.0 mi SW 19.6 mph 25.3 mph N/A   Overcast
11:15 AM 37.4 °F 28.9 °F 32.9 °F 84% 29.72 in 7.0 mi SW 13.8 mph 20.7 mph N/A   Overcast
11:35 AM 37.8 °F 29.0 °F 32.9 °F 83% 29.71 in 10.0 mi SW 15.0 mph 19.6 mph N/A   Overcast
11:55 AM 37.0 °F 29.3 °F 33.3 °F 86% 29.72 in 4.0 mi SW 11.5 mph - N/A Snow Light Snow
12:15 PM 37.2 °F 28.7 °F 33.6 °F 87% 29.72 in 10.0 mi SW 13.8 mph 19.6 mph N/A   Overcast
12:35 PM 37.9 °F 28.2 °F 32.2 °F 80% 29.72 in 10.0 mi WSW 18.4 mph 23.0 mph N/A   Overcast
12:55 PM 37.4 °F 28.2 °F 32.0 °F 81% 29.71 in 10.0 mi SW 16.1 mph 24.2 mph N/A   Overcast
1:15 PM 36.0 °F 25.3 °F 32.2 °F 86% 29.72 in 2.5 mi SW 19.6 mph 27.6 mph N/A Snow Light Snow
1:35 PM 37.4 °F 28.9 °F 33.4 °F 86% 29.72 in 10.0 mi SW 13.8 mph 23.0 mph N/A   Overcast
1:55 PM 36.5 °F 26.7 °F 33.8 °F 90% 29.73 in 4.0 mi WSW 17.3 mph 21.9 mph N/A Snow Light Snow
2:15 PM 37.2 °F 26.7 °F 32.2 °F 82% 29.73 in 10.0 mi WSW 20.7 mph - N/A Snow Light Snow
2:35 PM 37.0 °F 27.0 °F 32.2 °F 83% 29.73 in 10.0 mi WSW 18.4 mph 24.2 mph N/A Snow Light Snow
2:55 PM 37.8 °F 28.6 °F 33.3 °F 84% 29.73 in 10.0 mi WSW 16.1 mph 20.7 mph N/A   Overcast
3:15 PM 37.4 °F 26.6 °F 32.0 °F 81% 29.74 in 7.0 mi WSW 21.9 mph 28.8 mph N/A Snow Light Snow
3:35 PM 37.2 °F 28.7 °F 32.4 °F 83% 29.75 in 10.0 mi WSW 13.8 mph 20.7 mph N/A Snow Light Snow
3:55 PM 37.0 °F 27.7 °F 32.5 °F 84% 29.75 in 10.0 mi WSW 16.1 mph - N/A Snow Light Snow
4:15 PM 36.1 °F 26.9 °F 33.4 °F 90% 29.76 in 4.0 mi WSW 15.0 mph - N/A Snow Light Snow
4:35 PM 36.1 °F 27.3 °F 33.8 °F 91% 29.76 in 4.0 mi WSW 13.8 mph 18.4 mph N/A Snow Light Snow
4:55 PM 36.1 °F 26.2 °F 33.8 °F 91% 29.77 in 3.0 mi WSW 17.3 mph 24.2 mph N/A Snow Light Snow
5:15 PM 35.6 °F 25.2 °F 33.3 °F 91% 29.78 in 2.0 mi WSW 18.4 mph 24.2 mph N/A Snow Light Snow
5:35 PM 35.1 °F 25.2 °F 33.3 °F 93% 29.78 in 2.0 mi WSW 16.1 mph - N/A Snow Light Snow
5:55 PM 35.2 °F 25.4 °F 33.1 °F 92% 29.79 in 4.0 mi WSW 16.1 mph - N/A Snow Light Snow
6:15 PM 35.1 °F 26.9 °F 33.3 °F 93% 29.79 in 5.0 mi WSW 11.5 mph - N/A Snow Light Snow
6:35 PM 35.2 °F 27.1 °F 33.3 °F 92% 29.80 in 5.0 mi WSW 11.5 mph - N/A Snow Light Snow
7:15 PM 35.6 °F 27.5 °F 32.9 °F 90% 29.80 in 7.0 mi WSW 11.5 mph - N/A Snow Light Snow
7:55 PM 35.6 °F 27.1 °F 32.9 °F 90% 29.80 in 10.0 mi WSW 12.7 mph - N/A   Overcast
8:15 PM 35.6 °F 28.0 °F 32.2 °F 87% 29.81 in 10.0 mi WSW 10.4 mph - N/A   Overcast
8:55 PM 35.6 °F 25.9 °F 32.0 °F 87% 29.81 in 10.0 mi WSW 16.1 mph - N/A   Overcast
9:15 PM 35.2 °F 26.6 °F 31.5 °F 86% 29.81 in 10.0 mi WSW 12.7 mph - N/A   Overcast
9:35 PM 35.2 °F 25.8 °F 30.9 °F 84% 29.81 in 10.0 mi WSW 15.0 mph - N/A   Overcast
9:55 PM 35.2 °F 26.2 °F 30.6 °F 83% 29.81 in 10.0 mi WSW 13.8 mph 20.7 mph N/A   Overcast
10:15 PM 35.1 °F 26.9 °F 30.4 °F 83% 29.81 in 10.0 mi WSW 11.5 mph - N/A   Overcast
10:35 PM 34.9 °F 25.3 °F 30.2 °F 83% 29.81 in 10.0 mi West 15.0 mph 18.4 mph N/A   Overcast
10:55 PM 34.9 °F 25.3 °F 30.7 °F 85% 29.81 in 10.0 mi WSW 15.0 mph 19.6 mph N/A   Overcast
11:15 PM 34.7 °F 25.1 °F 31.1 °F 87% 29.81 in 10.0 mi WSW 15.0 mph - N/A   Overcast
11:35 PM 34.7 °F 25.5 °F 30.9 °F 86% 29.80 in 10.0 mi WSW 13.8 mph - N/A   Overcast